Theta_e
287 291 293 295 297 297 298 301 315 323 321 319 318 319 320 319 319 319 320 319 318 317 318 320 320 320 319 320 318 319 317 316 316 315 315 315 315 316
286 288 290 294 296 297 298 301 303 322 322 321 320 319 319 319 319 320 320 319 317 318 317 319 318 320 318 317 319 318 316 316 315 315 315 314 314 315
286 287 289 291 293 295 296 298 302 311 321 321 320 320 318 319 318 319 319 320 318 318 318 319 319 317 318 316 315 318 317 315 315 314 314 314 314 315
285 287 289 289 291 293 295 297 301 306 322 320 319 319 318 319 318 318 320 320 319 317 317 317 317 319 317 318 316 316 317 315 315 314 314 314 313 314
286 287 287 290 294 296 297 298 301 302 322 320 319 319 318 318 318 318 319 319 320 317 317 317 317 316 317 316 317 316 315 315 315 314 314 314 314 313
285 287 288 289 291 294 296 298 301 303 321 320 319 318 318 317 318 318 318 318 318 318 317 316 315 314 317 316 316 314 315 315 315 314 314 314 314 314
286 286 288 289 292 294 296 298 301 303 320 320 319 318 318 317 317 318 319 318 318 317 317 317 316 315 316 317 316 315 315 315 316 315 315 315 315 314
288 287 288 290 292 295 296 298 301 306 320 320 319 319 318 317 317 317 318 318 318 318 317 316 315 315 314 314 314 315 315 315 315 315 314 314 314 314
290 290 290 291 293 296 297 299 301 304 312 320 320 319 318 318 317 317 317 318 318 317 318 317 316 315 315 314 314 314 315 315 315 315 315 314 314 314
293 292 292 294 296 298 299 301 302 305 317 320 321 319 319 318 318 317 317 317 317 316 317 317 316 316 316 315 314 314 314 315 315 315 316 315 315 314
297 295 296 297 299 301 302 303 307 310 320 320 320 320 319 318 318 317 317 316 315 314 315 316 315 315 315 315 315 315 315 315 315 315 314 315 315 316
293 298 301 302 304 304 305 306 308 321 319 319 320 319 318 318 318 317 316 315 315 314 314 315 314 313 313 314 314 313 314 316 317 316 315 314 314 314
289 290 295 305 306 304 306 307 321 322 320 318 318 317 316 316 317 316 316 315 315 313 315 315 313 313 313 313 313 313 314 315 315 316 316 316 315 315
287 288 291 303 305 303 307 311 322 321 320 319 318 316 316 316 315 315 315 315 315 316 317 315 315 314 313 312 313 314 314 314 314 314 315 316 316 316
283 285 287 288 289 290 290 301 311 319 319 319 318 317 316 316 315 315 315 315 316 316 316 315 315 314 313 313 313 314 314 314 314 314 314 314 314 314
279 281 282 284 284 285 286 287 289 292 296 309 315 316 316 316 315 315 315 314 315 314 315 315 314 315 313 313 313 313 314 314 314 314 314 314 314 314
278 279 279 279 280 280 281 280 282 284 285 288 292 299 308 314 313 314 315 314 315 314 313 314 315 315 314 315 312 312 313 313 313 313 313 312 311 312
276 276 276 277 277 278 278 279 279 279 280 282 283 286 290 294 297 302 310 314 315 315 314 313 313 313 313 313 313 313 312 312 313 313 313 312 311 312
274 274 275 275 276 276 277 277 277 277 278 279 280 281 283 287 290 290 292 295 299 305 308 313 312 313 312 314 314 313 313 312 312 312 312 312 312 313
273 273 273 274 274 275 276 276 276 276 276 277 278 279 280 282 283 284 286 288 290 292 294 296 296 295 307 310 309 314 314 313 313 313 312 313 313 314
271 271 271 272 273 273 274 275 275 275 275 276 276 277 278 279 280 281 282 284 285 286 288 289 289 292 294 299 301 308 313 314 314 313 313 313 310 310
270 270 270 271 271 272 272 273 274 274 274 274 275 275 276 277 277 278 279 280 281 283 283 285 287 291 293 295 295 297 301 307 310 312 313 312 312 299
270 270 270 270 271 272 273 273 273 274 274 274 274 274 275 275 276 277 277 278 279 280 281 282 283 285 286 289 291 292 294 296 299 302 303 303 304 306
Wind_Speed
36 35 36 38 33 35 32 36 28 11 14 25 18 41 47 46 43 43 41 36 36 34 35 34 31 31 28 25 25 24 22 22 24 22 21 21 20 18
38 35 40 36 33 32 36 38 42 30 12 28 33 37 41 46 47 44 44 41 38 39 38 36 33 34 34 31 29 27 26 25 24 25 24 23 22 21
38 39 42 40 41 37 36 40 44 40 16 24 36 35 43 41 46 45 45 45 43 39 41 37 34 33 33 32 33 31 29 28 27 27 25 25 24 23
45 42 44 41 43 41 39 43 45 43 32 20 30 31 41 45 50 48 46 47 45 40 41 42 38 35 35 35 33 33 31 30 30 29 28 27 27 27
46 43 48 42 42 39 38 39 39 45 40 27 28 36 40 42 42 44 44 44 48 44 42 40 40 39 37 36 34 34 33 32 32 31 31 29 29 29
48 49 48 47 49 43 42 42 41 45 36 34 30 35 37 41 41 40 33 34 36 43 47 45 39 40 42 39 38 36 37 36 36 35 34 32 32 30
50 52 52 52 48 51 44 39 46 38 41 34 29 30 31 35 35 36 35 33 33 35 38 45 45 41 42 41 40 39 40 39 38 38 34 34 34 32
51 52 50 53 56 55 50 48 44 48 49 37 33 29 35 37 37 37 35 29 11 33 34 37 43 42 47 48 46 44 44 43 41 39 37 36 36 34
52 48 47 49 53 52 54 56 55 71 56 53 40 37 37 41 40 39 35 36 27 27 37 31 36 40 47 45 49 48 45 44 44 43 41 39 37 36
48 51 51 49 52 51 48 47 54 64 57 55 50 48 47 48 52 50 46 42 36 31 40 23 33 39 39 41 45 50 50 50 47 45 45 44 44 42
43 52 53 52 52 54 45 46 43 52 57 52 45 47 46 53 51 39 35 31 20 21 37 24 26 29 30 34 38 47 51 54 54 53 50 47 47 47
5 9 56 50 42 43 40 34 42 42 40 39 37 37 44 52 51 48 42 32 26 15 27 28 23 22 8 30 34 37 43 49 52 55 54 53 51 49
19 17 13 41 44 45 54 47 45 41 42 40 36 37 39 41 45 40 40 40 34 8 36 40 27 26 15 8 33 36 37 42 48 50 52 56 56 55
27 31 30 26 18 10 25 55 47 43 34 38 35 32 34 35 40 40 37 37 39 36 33 49 22 30 25 14 8 26 35 38 40 43 47 50 52 54
28 29 34 41 40 41 40 35 28 26 31 29 28 29 34 37 36 37 35 41 38 36 33 42 36 35 30 21 17 17 18 31 38 39 39 44 47 48
41 44 47 44 49 45 50 45 38 32 22 8 16 17 23 26 29 33 31 31 29 30 34 36 41 34 27 29 27 21 29 19 26 36 38 38 40 42
35 46 48 45 44 41 39 40 42 40 35 29 21 15 14 14 17 25 29 27 26 26 26 34 39 39 36 32 24 25 28 30 31 26 30 31 28 36
42 37 36 38 36 32 33 32 38 34 32 29 29 25 20 17 14 10 13 16 22 21 25 29 33 26 24 28 32 25 28 30 33 33 31 25 24 31
38 34 33 32 30 29 30 32 31 30 30 32 31 29 25 22 21 21 20 13 10 5 6 20 28 27 11 13 18 37 28 27 29 30 33 33 27 32
34 31 29 30 30 30 29 28 29 32 33 32 30 30 27 23 21 20 23 16 13 11 13 14 14 8 10 9 8 23 35 31 30 27 26 34 34 35
29 30 29 28 28 29 30 29 32 32 30 28 29 28 26 23 23 23 22 19 17 15 12 14 14 11 7 4 3 6 22 35 33 30 30 26 23 27
27 27 28 29 30 31 29 29 27 29 29 25 26 27 25 25 25 23 22 20 18 15 13 15 15 12 8 5 5 8 8 10 24 37 31 31 17 5
26 30 31 32 31 31 33 30 26 22 25 28 27 26 27 24 22 23 21 20 18 19 20 18 18 15 13 7 6 8 12 15 14 15 20 25 26 27
Wind_Direction
257 254 251 249 243 245 251 252 264 186 199 195 182 200 201 207 204 209 210 211 210 212 213 210 211 212 213 199 205 204 205 206 204 203 203 197 192 193
254 253 247 249 246 246 243 251 261 247 203 199 197 191 197 204 204 207 210 210 207 212 213 209 208 212 213 219 214 212 214 210 208 204 205 203 200 201
250 248 248 244 241 242 248 252 250 269 207 199 197 195 190 197 194 203 211 206 206 211 215 211 209 208 216 210 214 218 212 213 211 208 207 207 207 205
247 245 246 242 244 242 241 243 242 263 215 185 188 189 189 192 191 197 205 208 208 213 212 214 217 215 211 215 208 216 212 214 212 212 211 209 210 209
245 242 242 242 235 231 230 237 244 257 215 188 189 190 189 194 186 191 200 206 211 212 212 215 215 220 215 215 212 216 217 217 216 214 213 212 213 214
242 240 238 236 238 235 228 232 237 244 219 193 185 187 186 196 185 180 191 197 202 212 214 213 217 221 216 215 216 217 221 219 219 217 218 217 216 220
238 238 235 235 234 233 232 234 232 238 226 190 183 181 186 185 186 184 191 194 202 202 211 214 211 215 215 219 220 218 222 224 221 223 228 224 225 227
233 233 232 232 232 234 231 234 232 230 217 188 183 180 186 181 185 184 186 185 191 203 201 211 213 213 216 221 221 221 222 224 224 224 226 229 229 230
227 227 226 228 228 227 227 230 232 235 244 191 188 185 178 180 182 184 189 186 191 197 199 207 205 213 219 218 221 222 223 225 227 229 230 231 234 235
219 222 223 223 222 220 221 223 231 229 222 193 188 184 184 185 184 185 185 187 192 200 198 207 203 214 216 221 224 224 227 229 229 231 230 234 238 240
216 217 219 222 224 211 210 214 227 247 196 190 189 189 183 185 185 181 183 178 179 187 192 201 204 210 211 216 222 227 229 232 233 234 235 233 235 239
36 192 213 213 212 212 207 215 247 198 179 181 185 187 188 186 185 186 179 178 175 180 193 194 194 190 203 222 221 225 232 234 235 235 236 237 237 239
29 14 351 206 208 212 215 223 208 180 182 178 178 179 182 186 189 189 187 183 183 168 190 187 192 189 196 182 212 218 222 230 233 235 237 238 239 240
24 18 32 100 142 197 240 229 184 179 178 180 182 184 184 186 194 194 193 194 197 196 197 194 197 191 197 194 176 209 220 228 231 234 235 236 238 241
36 46 54 58 64 56 46 81 135 172 177 179 183 184 188 188 189 193 197 200 204 203 208 201 200 198 197 204 206 199 194 224 230 231 235 235 238 238
23 29 38 48 52 46 46 45 51 55 67 128 158 168 177 180 181 187 194 192 197 200 210 211 207 208 196 209 211 209 210 204 224 231 234 237 239 240
33 39 37 36 36 33 36 36 38 40 41 42 49 88 122 157 169 185 189 195 196 195 197 204 207 217 218 217 208 214 217 216 227 232 227 229 234 240
43 39 40 39 38 33 35 37 37 33 35 39 39 39 47 77 86 98 168 193 198 198 198 197 200 201 209 220 224 219 217 223 231 233 232 224 229 242
45 41 40 38 40 38 38 39 41 34 37 40 37 32 31 41 59 58 54 64 78 127 157 193 196 202 206 221 217 226 222 223 227 230 236 232 238 248
42 40 37 37 36 36 38 36 40 39 37 37 36 33 30 33 37 41 45 27 41 59 54 60 71 42 233 227 219 222 225 225 227 226 230 242 246 252
42 40 35 35 37 39 36 35 38 36 38 39 35 33 28 31 37 36 38 32 33 37 38 24 4 359 339 294 229 232 222 224 227 228 235 235 231 238
36 40 41 39 38 41 39 39 38 37 33 33 39 36 27 30 33 31 29 23 19 19 21 15 12 20 51 26 15 336 301 277 243 233 230 237 235 201
40 41 41 40 40 40 44 42 42 37 34 30 32 37 33 23 30 34 29 24 17 16 12 7 14 15 11 5 343 330 309 297 296 290 269 255 249 246